Location: Eardington
(52.5000°N, 2.4167°W)
Time: 04:09:50
(UTC+00:00)

Daily predictions for brighter satellites

Satellite Brightness Start Highest point End
(mag) Time Altitude Azimuth Time Altitude Azimuth Time Altitude Azimuth
USA 234 3.9 02:36:35 10° ENE 02:41:14 49° ENE 02:41:14 49° ENE
ADEOS Rocket 4.3 02:51:42 10° ESE 02:56:32 33° ENE 03:01:32 10° N
Cosmos 2344 4.3 02:56:53 39° SE 02:58:00 41° ESE 03:05:19 10° NE
Cosmos 2237 Rocket 4.4 03:03:13 15° N 03:03:13 15° N 03:05:18 10° NNE
Cosmos 1697 Rocket 4.3 03:03:55 25° N 03:05:53 32° NE 03:10:55 10° ESE
Cosmos 1943 4.5 03:17:52 33° N 03:17:52 33° N 03:21:07 10° NNE
MSX 4.2 03:20:55 10° NNE 03:26:37 58° ESE 03:26:51 57° ESE
SL-16 R/B 4.1 03:28:04 19° NNW 03:28:04 19° NNW 03:30:51 10° NNE
Cosmos 1980 Rocket 4.0 03:23:46 14° NNW 03:27:33 28° NE 03:32:18 10° E
CZ-4B R/B 4.5 03:28:12 10° E 03:30:16 16° ENE 03:30:16 16° ENE
ADEOS II 3.8 03:27:20 10° N 03:29:27 23° N 03:29:27 23° N
CENTAUR R/B 3.5 03:35:39 32° SSE 03:37:35 40° ESE 03:44:05 10° NE
ARIANE 5 R/B 3.7 03:33:17 10° NNE 03:36:09 35° N 03:36:09 35° N
Tsikada Rocket 4.1 03:42:59 63° NNW 03:42:59 63° NNW 03:48:17 10° N
Resurs 1-4 Rocket 4.3 03:39:57 10° N 03:41:00 14° NNW 03:41:00 14° NNW
CZ-2D R/B 4.3 03:52:45 10° N 03:53:32 13° NNW 03:53:32 13° NNW
CZ-2C R/B 4.4 03:57:14 10° NNE 03:59:22 30° NNE 03:59:22 30° NNE
CZ-2C R/B 3.0 03:59:35 10° NNE 04:04:34 56° E 04:07:19 25° S
Cosmos 2142 Rocket 4.3 04:01:47 10° NNW 04:07:59 72° W 04:14:14 10° S
Lacrosse 4 Rocket 2.8 04:08:01 30° SE 04:08:52 33° ESE 04:12:32 10° NE
USA 238 DEB 3.7 04:07:03 47° SSW 04:09:09 78° SE 04:16:09 10° NE
USA 238 3.7 04:07:08 47° SSW 04:09:15 78° SE 04:16:14 10° NE
PAYLOAD A 4.2 04:04:34 10° NNE 04:09:37 69° ESE 04:12:20 28° S
GP-B 3.4 04:10:49 57° N 04:10:49 57° N 04:14:24 10° N
Cosmos 1833 Rocket 4.3 04:05:33 10° SSE 04:10:28 32° ESE 04:15:25 10° NE
In-Cosmos 22 4.2 04:09:20 31° S 04:11:55 74° E 04:17:23 10° NNE
NOSS 3-2 (A) 3.4 04:11:54 56° SW 04:13:19 86° SE 04:20:08 10° NE
Cosmos 1302 Rocket 3.9 04:12:05 52° NNW 04:13:24 84° WSW 04:18:41 10° SSE
Cosmos 1025 Rocket 3.1 04:14:23 77° NNE 04:14:23 77° NNE 04:18:31 10° NNE
Spot 4 Rocket 4.2 04:09:21 10° N 04:13:49 55° NW 04:13:49 55° NW
Cosmos 1048 Rocket 4.0 04:15:06 63° NW 04:15:06 63° NW 04:20:21 10° NNE
Cosmos 1674 3.4 04:16:30 49° SE 04:16:57 53° E 04:20:41 10° NNE
Cosmos 2369 3.9 04:12:59 17° NNW 04:17:30 69° NE 04:23:08 10° SE
IDEFIX/ARIANE 42P 3.2 04:12:34 10° N 04:16:33 41° NNW 04:16:33 41° NNW
Cosmos 2228 4.3 04:13:55 10° N 04:18:03 40° ENE 04:22:11 10° SE
Cosmos 1269 Rocket 4.5 04:15:37 24° S 04:18:42 61° ESE 04:23:57 10° NNE
Cosmos 494 Rocket 3.9 04:22:50 61° SW 04:23:40 76° WNW 04:28:58 10° NNE
Meteor 1-16 Rocket 3.9 04:18:36 10° NNW 04:23:55 70° W 04:29:11 10° S
ATLAS 3B R/B 4.4 04:18:27 10° S 04:23:55 29° ESE 04:29:28 10° ENE
Geosat 3.8 04:19:22 10° SSE 04:24:24 75° WSW 04:25:54 46° NW
USA 234 3.4 04:19:41 10° ENE 04:26:09 66° N 04:28:35 40° WNW
Cosmos 1626 4.0 04:22:58 10° SSE 04:26:13 30° E 04:29:31 10° NNE
Cosmos 2082 Rocket 4.3 04:24:33 10° SSE 04:29:07 26° ESE 04:33:42 10° NE
COSMO-SKYMED 1 4.0 04:27:31 10° SE 04:31:32 38° ENE 04:35:34 10° N
Cosmos 1656 3.7 04:31:28 47° WNW 04:32:30 54° WSW 04:38:01 10° S
SL-16 R/B 4.0 04:27:58 10° NNW 04:32:49 28° NE 04:37:39 10° E
Cosmos 2279 Rocket 4.0 04:27:25 10° NNW 04:33:28 55° W 04:39:28 10° SSW
Lacrosse 5 rocket 3.3 04:35:54 15° S 04:37:49 22° SE 04:40:44 10° E
Meteor 1-31 Rocket 4.4 04:36:06 10° NNE 04:39:47 36° E 04:43:25 10° SSE
ADEOS Rocket 2.9 04:36:40 10° S 04:41:58 49° W 04:47:26 10° NNW
CREW DRAGON DEMO-1 DEB 3.4 04:42:58 53° ESE 04:42:58 53° ESE 04:45:25 10° E
COSMOS 2406 3.4 04:41:41 10° SSW 04:47:18 70° ESE 04:52:58 10° NE
Cosmos 2058 Rocket 4.4 04:45:35 10° N 04:49:54 42° ENE 04:54:10 10° SE
Cosmos 220 Rocket 3.9 04:46:38 16° NNW 04:50:09 87° WSW 04:54:36 10° SSE
Cosmos 1697 Rocket 2.6 04:45:44 16° NW 04:50:19 67° WSW 04:55:55 10° SSE
Cosmos 1536 Rocket 3.6 04:49:09 36° SW 04:50:46 60° WNW 04:55:14 10° N
deb Chang Zheng 4 4.3 04:46:36 10° NNE 04:50:46 54° ESE 04:54:57 10° S
Cosmos 1992 Rocket 3.9 04:49:06 10° NNW 04:54:21 89° WSW 04:59:34 10° SSE
Cosmos 2360 Rocket 4.2 04:55:27 10° NNW 04:59:55 23° NE 05:04:22 10° E
CZ-4B R/B 1.5 04:58:51 10° S 05:02:15 54° WSW 05:03:24 35° NW
FENGYUN 3A 3.7 04:58:57 10° NNE 05:04:26 82° ESE 05:09:53 10° SSW
Cosmos 1400 Rocket 2.9 05:02:31 10° N 05:06:31 73° ENE 05:10:26 10° SSE
CBERS 1 LM4 rocket 4.3 05:02:05 10° N 05:07:03 65° WNW 05:11:49 10° SSW
Cosmos 44 Rocket 4.3 05:08:01 28° WSW 05:08:21 28° WSW 05:12:43 10° S
ADEOS II 4.1 05:09:25 10° NNW 05:10:22 11° NW 05:10:22 11° NW
PSLV R/B 4.0 05:07:29 10° N 05:11:28 39° WNW 05:13:12 27° WSW
Cosmos 2344 3.7 05:06:55 22° WSW 05:12:00 64° NNW 05:20:39 10° NE
Cosmos 1980 Rocket 2.1 05:06:33 10° NNW 05:12:11 80° WSW 05:17:47 10° SSE
SL-16 R/B 4.4 05:11:04 10° NNW 05:13:08 12° N 05:15:11 10° NNE
NOSS 3-2 (C) 3.5 05:09:14 21° WSW 05:13:19 72° NW 05:20:13 10° NE
ARIANE 5 R/B 4.1 05:13:38 10° NNW 05:16:29 16° NW 05:16:29 16° NW
SL-19 R/B 3.9 05:14:11 10° NNE 05:17:01 63° ESE 05:19:49 10° S
Cosmos 2251 Rocket 4.2 05:13:51 10° S 05:19:06 58° ESE 05:24:21 10° NNE
SJ-12 4.4 05:15:15 10° NNE 05:19:22 63° E 05:23:27 10° S
SKYMED 2 3.5 05:15:10 10° SSE 05:19:31 81° WSW 05:23:54 10° NNW
Cosmos 2360 4.4 05:17:27 10° NW 05:22:56 49° WSW 05:28:22 10° S
ERS-2 3.5 05:20:10 10° SSW 05:22:05 21° SW 05:22:05 21° SW
Cosmos 2219 Rocket 4.4 05:23:06 10° NNW 05:27:04 19° NNE 05:30:59 10° ENE
Cosmos 1461 3.8 05:22:52 10° SSW 05:27:21 58° SE 05:32:02 10° NE
CENTAUR R/B 2.7 05:22:52 17° WSW 05:27:57 66° NW 05:35:27 10° NE
SAR-Lupe-4 4.0 05:25:51 10° S 05:29:14 39° W 05:32:38 10° NNW
SL-14 R/B 3.3 05:30:21 10° SSW 05:34:17 61° WNW 05:38:18 10° N
ALOS 2.3 05:29:58 10° N 05:34:34 56° WNW 05:39:07 10° SSW
Intercosmos 24 4.4 05:31:36 10° NNW 05:35:24 33° W 05:38:38 10° SSW
Cosmos 1315 Rocket 3.6 05:31:35 10° N 05:35:38 56° ENE 05:39:42 10° SSE
Cosmos 2278 3.8 05:33:00 10° NW 05:38:30 52° WSW 05:43:57 10° S
Abrixas rocket 3.5 05:38:01 18° SW 05:39:10 22° SSW 05:41:29 10° SE
Cosmos 1300 3.1 05:36:28 10° NNW 05:40:04 39° W 05:43:38 10° SSW
Aureole 3 3.4 05:37:28 10° NNW 05:41:15 63° W 05:45:59 10° S
CZ-2C R/B 3.4 05:38:17 10° N 05:42:29 27° WNW 05:46:35 10° WSW
Cosmos 1726 Rocket 3.9 05:38:32 10° NNW 05:42:46 44° W 05:47:00 10° SSW
Cosmos 2322 Rocket 2.9 05:37:11 10° NNW 05:42:47 54° NE 05:48:19 10° SE
Cosmos 1092 Rocket 3.9 05:36:59 10° SSW 05:43:08 71° WNW 05:49:24 10° N
ISS -2.4 05:40:22 10° SW 05:43:29 35° SSE 05:46:36 10° E
Cosmos 1689 Rocket 2.6 05:41:32 10° SSW 05:44:16 35° W 05:47:01 10° NNW
PSLV R/B 4.2 05:41:40 10° S 05:45:46 50° W 05:49:55 10° NNW
ADEOS 3.8 05:41:39 10° N 05:46:40 48° WNW 05:51:40 10° SW
Lacrosse 4 Rocket 1.9 05:44:22 14° WSW 05:47:30 38° NW 05:51:21 10° NNE
USA 290 2.2 05:44:17 10° SSW 05:47:30 88° ESE 05:50:47 10° NNE
Nadezhda 4 Rocket 4.3 05:43:55 10° SW 05:49:42 43° WNW 05:55:33 10° N
Cosmos 1484 Rocket 3.4 05:46:34 10° N 05:50:07 33° WNW 05:53:35 10° SW
Cosmos 2098 Rocket 4.5 05:45:45 10° S 05:51:36 54° E 05:56:18 10° NNE
Cosmos 1674 4.2 05:51:23 15° W 05:52:48 17° WNW 05:55:24 10° NNW
Cosmos 1833 Rocket 2.8 05:48:35 10° SW 05:54:09 57° NW 05:59:45 10° NNE
Cosmos 2228 4.0 05:51:48 10° NNW 05:55:25 26° W 05:59:03 10° SW
IDEFIX/ARIANE 42P 4.5 05:54:42 10° NNW 05:55:58 11° NW 05:57:14 10° WNW
CZ-4B R/B 2.8 05:53:58 10° N 05:57:52 63° WNW 06:01:58 10° SSW
Meteor 1-24 Rocket 3.8 05:53:54 10° SSW 05:59:28 57° WNW 06:05:16 10° N
H-2A R/B 3.1 05:56:12 10° NNE 06:00:00 70° E 06:03:50 10° S
S3M 4.2 05:53:46 10° N 06:00:05 80° E 06:06:27 10° SSE
USA 238 DEB 4.2 05:54:31 11° W 06:00:40 44° NNW 06:07:26 10° NE
USA 238 4.2 05:54:36 11° W 06:00:46 45° NNW 06:07:32 10° NE
Envisat 4.1 05:56:19 10° NNE 06:01:18 51° E 06:06:14 10° S
Meteor 2-10 Rocket 3.4 05:56:21 10° NNW 06:01:22 74° W 06:06:25 10° S
Cosmos 1626 3.1 05:58:21 10° SW 06:01:29 26° WNW 06:04:39 10° N
NOSS 3-2 (A) 4.2 05:59:19 11° W 06:04:55 41° NNW 06:11:38 10° NE
METEOR-M 4.5 06:02:13 10° N 06:07:15 43° WNW 06:12:15 10° SW
COSMO-SKYMED 1 3.4 06:03:58 10° SSW 06:07:47 30° W 06:11:37 10° NNW
USA 234 3.5 06:02:24 10° E 06:08:52 64° N 06:15:20 10° WNW
Cosmos 407 Rocket 4.4 06:04:12 10° S 06:09:10 53° ESE 06:14:13 10° NNE
Cosmos 2082 Rocket 2.2 06:07:12 10° SW 06:12:46 67° NW 06:18:24 10° NNE
Meteor 2-1 Rocket 4.2 06:08:15 10° NNW 06:13:52 72° W 06:19:35 10° S
ATLAS 3B R/B 2.6 06:07:24 10° SW 06:13:59 82° NW 06:20:46 10° NE
Meteor 1-31 Rocket 3.8 06:10:43 10° N 06:14:05 27° WNW 06:17:25 10° WSW
Lacrosse 5 rocket 1.1 06:12:48 10° WSW 06:16:31 86° NNW 06:20:25 10° ENE
SL-16 R/B 2.2 06:11:52 10° NNW 06:17:35 81° WSW 06:23:15 10° SSE
CREW DRAGON DEMO-1 DEB 3.8 06:14:58 10° W 06:17:46 36° SSW 06:20:35 10° SE
Meteor PRIRODA 4.0 06:15:31 10° N 06:18:57 40° WNW 06:22:23 10° SW
ATLAS CENTAUR R/B 4.2 06:16:15 10° SSE 06:19:12 21° ESE 06:22:04 10° ENE
COSMOS 2428 4.4 06:16:47 10° NNW 06:21:47 29° NE 06:26:44 10° E
Meteor 2-5 Rocket 4.4 06:18:17 10° SW 06:23:25 33° WNW 06:28:42 10° N
Cosmos 2333 Rocket 3.7 06:18:29 10° NNW 06:23:40 34° NE 06:28:47 10° ESE
NOAA 6 4.3 06:19:56 10° NNE 06:25:08 81° ESE 06:30:18 10° SSW
